Time,TemperatureF,DewpointF,PressureIn,WindDirection,WindDirectionDegrees,WindSpeedMPH,WindSpeedGustMPH,Humidity,HourlyPrecipIn,Conditions,Clouds,dailyrainin,SolarRadiationWatts/m^2,SoftwareType,DateUTC
2013-02-02 00:11:00,38.0,31.0,-100.00,North,3,5.0,9.0,75,0.00,,,0.00,0.000000,,2013-02-02 09:11:00,
2013-02-02 00:22:00,38.0,31.0,-100.00,North,3,5.0,9.0,75,0.00,,,0.00,0.000000,,2013-02-02 09:22:00,
2013-02-02 00:31:00,38.0,31.0,-100.00,North,3,5.0,9.0,75,0.00,,,0.00,0.000000,,2013-02-02 09:31:00,
2013-02-02 00:41:00,38.0,31.0,-100.00,North,3,5.0,9.0,75,0.00,,,0.00,0.000000,,2013-02-02 09:41:00,
2013-02-02 00:51:00,38.0,31.0,-100.00,North,3,5.0,9.0,75,0.00,,,0.00,0.000000,,2013-02-02 09:51:00,
2013-02-02 01:11:00,38.0,31.0,-100.00,North,357,3.0,8.0,76,0.00,,,0.00,0.000000,,2013-02-02 10:11:00,
2013-02-02 01:21:00,38.0,31.0,-100.00,North,357,3.0,8.0,76,0.00,,,0.00,0.000000,,2013-02-02 10:21:00,
2013-02-02 01:31:00,38.0,31.0,-100.00,North,357,3.0,8.0,76,0.00,,,0.00,0.000000,,2013-02-02 10:31:00,
2013-02-02 01:41:00,38.0,31.0,-100.00,North,357,3.0,8.0,76,0.00,,,0.00,0.000000,,2013-02-02 10:41:00,
2013-02-02 01:51:00,38.0,31.0,-100.00,North,357,3.0,8.0,76,0.00,,,0.00,0.000000,,2013-02-02 10:51:00,
2013-02-02 02:21:00,38.0,31.0,-100.00,NNW,330,4.0,6.0,77,0.00,,,-99.99,0.000000,,2013-02-02 11:21:00,
2013-02-02 02:31:00,38.0,31.0,-100.00,NNW,330,4.0,6.0,77,0.00,,,-99.99,0.000000,,2013-02-02 11:31:00,
2013-02-02 02:41:00,38.0,31.0,-100.00,NNW,330,4.0,6.0,77,0.00,,,-99.99,0.000000,,2013-02-02 11:41:00,
2013-02-02 02:52:00,38.0,31.0,-100.00,NNW,330,4.0,6.0,77,0.00,,,-99.99,0.000000,,2013-02-02 11:52:00,
2013-02-02 03:22:00,38.0,31.0,-100.00,NNW,338,4.0,7.0,75,0.00,,,0.00,0.000000,,2013-02-02 12:22:00,
2013-02-02 03:32:00,38.0,31.0,-100.00,NNW,338,4.0,7.0,75,0.00,,,0.00,0.000000,,2013-02-02 12:32:00,
2013-02-02 03:42:00,38.0,31.0,-100.00,NNW,338,4.0,7.0,75,0.00,,,0.00,0.000000,,2013-02-02 12:42:00,
2013-02-02 03:52:00,38.0,31.0,-100.00,NNW,338,4.0,7.0,75,0.00,,,0.00,0.000000,,2013-02-02 12:52:00,
2013-02-02 04:11:00,38.0,31.0,-100.00,North,351,4.0,8.0,75,0.00,,,0.00,0.000000,,2013-02-02 13:11:00,
2013-02-02 04:21:00,38.0,31.0,-100.00,North,351,4.0,8.0,75,0.00,,,0.00,0.000000,,2013-02-02 13:21:00,
2013-02-02 04:32:00,38.0,31.0,-100.00,North,351,4.0,8.0,75,0.00,,,0.00,0.000000,,2013-02-02 13:32:00,
2013-02-02 04:42:00,38.0,31.0,-100.00,North,351,4.0,8.0,75,0.00,,,0.00,0.000000,,2013-02-02 13:42:00,
2013-02-02 04:51:00,38.0,31.0,-100.00,North,351,4.0,8.0,75,0.00,,,0.00,0.000000,,2013-02-02 13:51:00,
2013-02-02 05:11:00,38.0,30.0,-100.00,NNE,13,6.0,11.0,74,0.00,,,0.00,0.000000,,2013-02-02 14:11:00,
2013-02-02 05:22:00,38.0,30.0,-100.00,NNE,13,6.0,11.0,74,0.00,,,0.00,0.000000,,2013-02-02 14:22:00,
2013-02-02 05:32:00,38.0,30.0,-100.00,NNE,13,6.0,11.0,74,0.00,,,0.00,0.000000,,2013-02-02 14:32:00,
2013-02-02 05:42:00,38.0,30.0,-100.00,NNE,13,6.0,11.0,74,0.00,,,0.00,0.000000,,2013-02-02 14:42:00,
2013-02-02 05:52:00,38.0,30.0,-100.00,NNE,13,6.0,11.0,74,0.00,,,0.00,0.000000,,2013-02-02 14:52:00,
2013-02-02 06:12:00,37.0,31.0,-100.00,WNW,301,1.0,10.0,78,0.00,,,0.00,0.000000,,2013-02-02 15:12:00,
2013-02-02 06:21:00,37.0,31.0,-100.00,WNW,301,1.0,10.0,78,0.00,,,0.00,0.000000,,2013-02-02 15:21:00,
2013-02-02 06:32:00,37.0,31.0,-100.00,WNW,301,1.0,10.0,78,0.00,,,0.00,0.000000,,2013-02-02 15:32:00,
2013-02-02 06:42:00,37.0,31.0,-100.00,WNW,301,1.0,10.0,78,0.00,,,0.00,0.000000,,2013-02-02 15:42:00,
2013-02-02 06:51:00,37.0,31.0,-100.00,WNW,301,1.0,10.0,78,0.00,,,0.00,0.000000,,2013-02-02 15:51:00,
2013-02-02 07:11:00,38.0,31.0,-100.00,NNW,343,4.0,6.0,76,0.00,,,0.00,0.000000,,2013-02-02 16:11:00,
2013-02-02 07:22:00,38.0,31.0,-100.00,NNW,343,4.0,6.0,76,0.00,,,0.00,0.000000,,2013-02-02 16:22:00,
2013-02-02 07:31:00,38.0,31.0,-100.00,NNW,343,4.0,6.0,76,0.00,,,0.00,0.000000,,2013-02-02 16:31:00,
2013-02-02 07:42:00,38.0,31.0,-100.00,NNW,343,4.0,6.0,76,0.00,,,0.00,0.000000,,2013-02-02 16:42:00,
2013-02-02 07:51:00,38.0,31.0,-100.00,NNW,343,4.0,6.0,76,0.00,,,0.00,0.000000,,2013-02-02 16:51:00,
2013-02-02 08:22:00,38.0,31.0,-100.00,NNW,343,4.0,10.0,76,0.00,,,0.00,0.000000,,2013-02-02 17:22:00,
2013-02-02 08:32:00,38.0,31.0,-100.00,NNW,343,4.0,10.0,76,0.00,,,0.00,0.000000,,2013-02-02 17:32:00,
2013-02-02 08:41:00,38.0,31.0,-100.00,NNW,343,4.0,10.0,76,0.00,,,0.00,0.000000,,2013-02-02 17:41:00,
2013-02-02 08:52:00,38.0,31.0,-100.00,NNW,343,4.0,10.0,76,0.00,,,0.00,0.000000,,2013-02-02 17:52:00,
2013-02-02 09:12:00,38.0,30.0,-100.00,North,358,5.0,11.0,74,0.00,,,0.00,0.000000,,2013-02-02 18:12:00,
2013-02-02 09:22:00,38.0,30.0,-100.00,North,358,5.0,11.0,74,0.00,,,0.00,0.000000,,2013-02-02 18:22:00,
2013-02-02 09:31:00,38.0,30.0,-100.00,North,358,5.0,11.0,74,0.00,,,0.00,0.000000,,2013-02-02 18:31:00,
2013-02-02 09:41:00,38.0,30.0,-100.00,North,358,5.0,11.0,74,0.00,,,0.00,0.000000,,2013-02-02 18:41:00,
2013-02-02 09:52:00,38.0,30.0,-100.00,North,358,5.0,11.0,74,0.00,,,0.00,0.000000,,2013-02-02 18:52:00,
2013-02-02 10:21:00,37.0,29.0,-100.00,NNW,337,4.0,8.0,73,0.00,,,0.00,10.000000,,2013-02-02 19:21:00,
2013-02-02 10:32:00,37.0,29.0,-100.00,NNW,337,4.0,8.0,73,0.00,,,0.00,10.000000,,2013-02-02 19:32:00,
2013-02-02 10:41:00,37.0,29.0,-100.00,NNW,337,4.0,8.0,73,0.00,,,0.00,10.000000,,2013-02-02 19:41:00,
2013-02-02 10:51:00,37.0,29.0,-100.00,NNW,337,4.0,8.0,73,0.00,,,0.00,10.000000,,2013-02-02 19:51:00,
2013-02-02 11:11:00,39.0,31.0,-100.00,North,4,8.0,12.0,72,0.00,,,0.00,58.000000,,2013-02-02 20:11:00,
2013-02-02 11:21:00,39.0,31.0,-100.00,North,4,8.0,12.0,72,0.00,,,0.00,58.000000,,2013-02-02 20:21:00,
2013-02-02 11:32:00,39.0,31.0,-100.00,North,4,8.0,12.0,72,0.00,,,0.00,58.000000,,2013-02-02 20:32:00,
2013-02-02 11:41:00,39.0,31.0,-100.00,North,4,8.0,12.0,72,0.00,,,0.00,58.000000,,2013-02-02 20:41:00,
2013-02-02 11:52:00,39.0,31.0,-100.00,North,4,8.0,12.0,72,0.00,,,0.00,58.000000,,2013-02-02 20:52:00,
2013-02-02 12:11:00,39.0,31.0,-100.00,North,6,6.0,13.0,72,0.00,,,0.00,69.000000,,2013-02-02 21:11:00,
2013-02-02 12:21:00,39.0,31.0,-100.00,North,6,6.0,13.0,72,0.00,,,0.00,69.000000,,2013-02-02 21:21:00,
2013-02-02 12:32:00,39.0,31.0,-100.00,North,6,6.0,13.0,72,0.00,,,0.00,69.000000,,2013-02-02 21:32:00,
2013-02-02 12:42:00,39.0,31.0,-100.00,North,6,6.0,13.0,72,0.00,,,0.00,69.000000,,2013-02-02 21:42:00,
2013-02-02 12:51:00,39.0,31.0,-100.00,North,6,6.0,13.0,72,0.00,,,0.00,69.000000,,2013-02-02 21:51:00,
2013-02-02 13:11:00,40.0,31.0,-100.00,NNW,348,5.0,14.0,71,0.00,,,0.00,97.000000,,2013-02-02 22:11:00,
2013-02-02 13:21:00,40.0,31.0,-100.00,NNW,348,5.0,14.0,71,0.00,,,0.00,97.000000,,2013-02-02 22:21:00,
2013-02-02 13:32:00,40.0,31.0,-100.00,NNW,348,5.0,14.0,71,0.00,,,0.00,97.000000,,2013-02-02 22:32:00,
2013-02-02 13:41:00,40.0,31.0,-100.00,NNW,348,5.0,14.0,71,0.00,,,0.00,97.000000,,2013-02-02 22:41:00,
2013-02-02 13:51:00,40.0,31.0,-100.00,NNW,348,5.0,14.0,71,0.00,,,0.00,97.000000,,2013-02-02 22:51:00,
2013-02-02 14:21:00,40.0,32.0,-100.00,North,5,5.0,11.0,72,0.00,,,0.00,119.000000,,2013-02-02 23:21:00,
2013-02-02 14:32:00,40.0,32.0,-100.00,North,5,5.0,11.0,72,0.00,,,0.00,119.000000,,2013-02-02 23:32:00,
2013-02-02 14:41:00,40.0,32.0,-100.00,North,5,5.0,11.0,72,0.00,,,0.00,119.000000,,2013-02-02 23:41:00,
2013-02-02 14:52:00,40.0,32.0,-100.00,North,5,5.0,11.0,72,0.00,,,0.00,119.000000,,2013-02-02 23:52:00,
2013-02-02 15:11:00,40.0,31.0,-100.00,NNE,22,8.0,17.0,70,0.00,,,0.00,132.000000,,2013-02-03 00:11:00,
2013-02-02 15:21:00,40.0,31.0,-100.00,NNE,22,8.0,17.0,70,0.00,,,0.00,132.000000,,2013-02-03 00:21:00,
2013-02-02 15:31:00,40.0,31.0,-100.00,NNE,22,8.0,17.0,70,0.00,,,0.00,132.000000,,2013-02-03 00:31:00,
2013-02-02 15:41:00,40.0,31.0,-100.00,NNE,22,8.0,17.0,70,0.00,,,0.00,132.000000,,2013-02-03 00:41:00,
2013-02-02 15:51:00,40.0,31.0,-100.00,NNE,22,8.0,17.0,70,0.00,,,0.00,132.000000,,2013-02-03 00:51:00,
2013-02-02 16:11:00,40.0,31.0,-100.00,NNE,26,10.0,18.0,70,0.00,,,0.00,69.000000,,2013-02-03 01:11:00,
2013-02-02 16:21:00,40.0,31.0,-100.00,NNE,26,10.0,18.0,70,0.00,,,0.00,69.000000,,2013-02-03 01:21:00,
2013-02-02 16:32:00,40.0,31.0,-100.00,NNE,26,10.0,18.0,70,0.00,,,0.00,69.000000,,2013-02-03 01:32:00,
2013-02-02 16:41:00,40.0,31.0,-100.00,NNE,26,10.0,18.0,70,0.00,,,0.00,69.000000,,2013-02-03 01:41:00,
2013-02-02 16:51:00,40.0,31.0,-100.00,NNE,26,10.0,18.0,70,0.00,,,0.00,69.000000,,2013-02-03 01:51:00,
2013-02-02 17:11:00,39.0,30.0,-100.00,NNE,21,10.0,21.0,70,0.00,,,0.00,61.000000,,2013-02-03 02:11:00,
2013-02-02 17:21:00,39.0,30.0,-100.00,NNE,21,10.0,21.0,70,0.00,,,0.00,61.000000,,2013-02-03 02:21:00,
2013-02-02 17:31:00,39.0,30.0,-100.00,NNE,21,10.0,21.0,70,0.00,,,0.00,61.000000,,2013-02-03 02:31:00,
2013-02-02 17:41:00,39.0,30.0,-100.00,NNE,21,10.0,21.0,70,0.00,,,0.00,61.000000,,2013-02-03 02:41:00,
2013-02-02 17:52:00,39.0,30.0,-100.00,NNE,21,10.0,21.0,70,0.00,,,0.00,61.000000,,2013-02-03 02:52:00,
2013-02-02 18:21:00,39.0,30.0,-100.00,NNE,24,10.0,18.0,71,0.00,,,0.00,6.000000,,2013-02-03 03:21:00,
2013-02-02 18:31:00,39.0,30.0,-100.00,NNE,24,10.0,18.0,71,0.00,,,0.00,6.000000,,2013-02-03 03:31:00,
2013-02-02 18:41:00,39.0,30.0,-100.00,NNE,24,10.0,18.0,71,0.00,,,0.00,6.000000,,2013-02-03 03:41:00,
2013-02-02 18:51:00,39.0,30.0,-100.00,NNE,24,10.0,18.0,71,0.00,,,0.00,6.000000,,2013-02-03 03:51:00,
2013-02-02 19:11:00,40.0,31.0,-100.00,NE,34,10.0,19.0,70,0.00,,,-99.99,0.000000,,2013-02-03 04:11:00,
2013-02-02 19:21:00,40.0,31.0,-100.00,NE,34,10.0,19.0,70,0.00,,,-99.99,0.000000,,2013-02-03 04:21:00,
2013-02-02 19:31:00,40.0,31.0,-100.00,NE,34,10.0,19.0,70,0.00,,,-99.99,0.000000,,2013-02-03 04:31:00,
2013-02-02 19:42:00,40.0,31.0,-100.00,NE,34,10.0,19.0,70,0.00,,,-99.99,0.000000,,2013-02-03 04:42:00,
2013-02-02 19:51:00,40.0,31.0,-100.00,NE,34,10.0,19.0,70,0.00,,,-99.99,0.000000,,2013-02-03 04:51:00,
2013-02-02 20:22:00,40.0,31.0,-100.00,NNE,33,11.0,19.0,69,0.00,,,0.00,0.000000,,2013-02-03 05:22:00,
2013-02-02 20:32:00,40.0,31.0,-100.00,NNE,33,11.0,19.0,69,0.00,,,0.00,0.000000,,2013-02-03 05:32:00,
2013-02-02 20:41:00,40.0,31.0,-100.00,NNE,33,11.0,19.0,69,0.00,,,0.00,0.000000,,2013-02-03 05:41:00,
2013-02-02 20:52:00,40.0,31.0,-100.00,NNE,33,11.0,19.0,69,0.00,,,0.00,0.000000,,2013-02-03 05:52:00,
2013-02-02 21:11:00,41.0,31.0,-100.00,NNE,25,13.0,24.0,66,0.00,,,0.00,0.000000,,2013-02-03 06:11:00,
2013-02-02 21:21:00,41.0,31.0,-100.00,NNE,25,13.0,24.0,66,0.00,,,0.00,0.000000,,2013-02-03 06:21:00,
2013-02-02 21:31:00,41.0,31.0,-100.00,NNE,25,13.0,24.0,66,0.00,,,0.00,0.000000,,2013-02-03 06:31:00,
2013-02-02 21:41:00,41.0,31.0,-100.00,NNE,25,13.0,24.0,66,0.00,,,0.00,0.000000,,2013-02-03 06:41:00,
2013-02-02 21:52:00,41.0,31.0,-100.00,NNE,25,13.0,24.0,66,0.00,,,0.00,0.000000,,2013-02-03 06:52:00,
2013-02-02 22:11:00,41.0,31.0,-100.00,NE,35,15.0,30.0,68,0.00,,,0.00,0.000000,,2013-02-03 07:11:00,
2013-02-02 22:21:00,41.0,31.0,-100.00,NE,35,15.0,30.0,68,0.00,,,0.00,0.000000,,2013-02-03 07:21:00,
2013-02-02 22:31:00,41.0,31.0,-100.00,NE,35,15.0,30.0,68,0.00,,,0.00,0.000000,,2013-02-03 07:31:00,
2013-02-02 22:41:00,41.0,31.0,-100.00,NE,35,15.0,30.0,68,0.00,,,0.00,0.000000,,2013-02-03 07:41:00,
2013-02-02 22:52:00,41.0,31.0,-100.00,NE,35,15.0,30.0,68,0.00,,,0.00,0.000000,,2013-02-03 07:52:00,
2013-02-02 23:11:00,41.0,30.0,-100.00,NNE,20,11.0,22.0,65,0.00,,,0.00,0.000000,,2013-02-03 08:11:00,
2013-02-02 23:22:00,41.0,30.0,-100.00,NNE,20,11.0,22.0,65,0.00,,,0.00,0.000000,,2013-02-03 08:22:00,
2013-02-02 23:32:00,41.0,30.0,-100.00,NNE,20,11.0,22.0,65,0.00,,,0.00,0.000000,,2013-02-03 08:32:00,
2013-02-02 23:41:00,41.0,30.0,-100.00,NNE,20,11.0,22.0,65,0.00,,,0.00,0.000000,,2013-02-03 08:41:00,
2013-02-02 23:51:00,41.0,30.0,-100.00,NNE,20,11.0,22.0,65,0.00,,,0.00,0.000000,,2013-02-03 08:51:00,